MNO442 FABL-FVFA

Flight info

Callsign MNO442
Flight time N/A
Altitude 33000
Route OKTIG1B OKTIG UZ4 TEVAR DCT GAV UA405 UTRUK UB540 ETMIT/N0470F340 UN309 BONAL UM309 VFA
Aircraft B738/M-SDE2E3FGHIRWXY/LB1

Departure

Time 2026-05-05 11:09
Airport Bram Fischer International Airport (FABL)

Arrival

Time N/A
Airport Victoria Falls International Airport (FVFA)
Time Latitude Longitude Altitude Speed Heading
2026-05-05 10:59 -29.09528 26.29892 4424 ft 0 kts 237°
2026-05-05 11:05 -29.09529 26.29892 4424 ft 0 kts 233°
2026-05-05 11:05 -29.09533 26.29892 4424 ft 1 kts 185°
2026-05-05 11:06 -29.09541 26.29910 4426 ft 7 kts 112°
2026-05-05 11:06 -29.09579 26.29985 4424 ft 13 kts 142°
2026-05-05 11:06 -29.09699 26.30004 4423 ft 21 kts 179°
2026-05-05 11:06 -29.09838 26.30004 4423 ft 19 kts 181°
2026-05-05 11:07 -29.09969 26.30001 4423 ft 19 kts 181°
2026-05-05 11:07 -29.10100 26.30000 4425 ft 20 kts 180°
2026-05-05 11:07 -29.10260 26.29998 4422 ft 24 kts 180°
2026-05-05 11:07 -29.10408 26.30001 4422 ft 13 kts 173°
2026-05-05 11:08 -29.10480 26.30059 4422 ft 13 kts 121°
2026-05-05 11:08 -29.10496 26.30140 4423 ft 9 kts 94°
2026-05-05 11:08 -29.10475 26.30218 4425 ft 14 kts 31°
2026-05-05 11:08 -29.10257 26.30234 4423 ft 62 kts
2026-05-05 11:09 -29.09605 26.30238 4421 ft 124 kts 360°
2026-05-05 11:09 -29.08561 26.30238 4469 ft 172 kts 357°
2026-05-05 11:09 -29.07292 26.30277 5025 ft 184 kts 358°
2026-05-05 11:09 -29.06028 26.30303 5741 ft 188 kts 357°
2026-05-05 11:10 -29.04716 26.30314 6380 ft 188 kts 356°
2026-05-05 11:10 -29.03381 26.30342 6846 ft 197 kts 358°
2026-05-05 11:10 -29.01949 26.30391 7115 ft 215 kts 357°
2026-05-05 11:10 -29.00389 26.30665 7286 ft 243 kts 16°
2026-05-05 11:11 -28.98845 26.31601 7731 ft 257 kts 31°
2026-05-05 11:11 -28.97889 26.32442 8121 ft 266 kts 34°
2026-05-05 11:11 -28.95921 26.34266 8941 ft 280 kts 34°
2026-05-05 11:11 -28.94392 26.35678 9730 ft 285 kts 33°
2026-05-05 11:12 -28.93340 26.36639 10261 ft 288 kts 33°
2026-05-05 11:12 -28.91162 26.38610 10624 ft 318 kts 33°
2026-05-05 11:12 -28.89365 26.40229 10804 ft 342 kts 33°
2026-05-05 11:12 -28.88029 26.41433 10946 ft 356 kts 33°
2026-05-05 11:13 -28.84083 26.45010 12270 ft 365 kts 33°
2026-05-05 11:13 -28.80061 26.48657 13642 ft 372 kts 32°
2026-05-05 11:13 -28.75965 26.52361 14938 ft 376 kts 31°
2026-05-05 11:13 -28.71811 26.56112 16154 ft 382 kts 31°
2026-05-05 11:14 -28.67624 26.59887 17370 ft 386 kts 30°
2026-05-05 11:14 -28.63384 26.63703 18503 ft 391 kts 30°
2026-05-05 11:14 -28.59100 26.67558 19485 ft 395 kts 30°
2026-05-05 11:14 -28.54743 26.71472 20381 ft 402 kts 30°
2026-05-05 11:15 -28.50331 26.75436 21304 ft 407 kts 30°
2026-05-05 11:15 -28.47097 26.78316 21962 ft 409 kts 28°
2026-05-05 11:15 -28.42428 26.81999 22805 ft 410 kts 25°
2026-05-05 11:15 -28.37650 26.85608 23586 ft 415 kts 25°
2026-05-05 11:16 -28.32816 26.89294 24028 ft 425 kts 26°
2026-05-05 11:16 -28.27887 26.93087 24624 ft 429 kts 26°
2026-05-05 11:16 -28.22931 26.96910 25243 ft 432 kts 26°
2026-05-05 11:16 -28.17938 27.00755 25818 ft 437 kts 25°
2026-05-05 11:17 -28.12882 27.04642 26373 ft 441 kts 25°
2026-05-05 11:17 -28.07764 27.08574 26881 ft 446 kts 25°
2026-05-05 11:17 -28.03413 27.11903 27336 ft 447 kts 24°
2026-05-05 11:17 -28.00701 27.13571 27574 ft 439 kts 15°
2026-05-05 11:18 -27.97868 27.14779 27839 ft 433 kts
2026-05-05 11:18 -27.93983 27.15706 28182 ft 427 kts
2026-05-05 11:18 -27.88184 27.16863 28787 ft 428 kts
2026-05-05 11:18 -27.82343 27.18060 29351 ft 429 kts
2026-05-05 11:19 -27.76407 27.19290 29679 ft 436 kts
2026-05-05 11:19 -27.70476 27.20535 30540 ft 429 kts
2026-05-05 11:19 -27.64656 27.21756 31357 ft 423 kts
2026-05-05 11:19 -27.58871 27.22960 32020 ft 421 kts
2026-05-05 11:20 -27.53142 27.24154 32824 ft 415 kts
2026-05-05 11:20 -27.49349 27.24946 33551 ft 406 kts
2026-05-05 11:20 -27.49131 27.24992 33594 ft 406 kts